Time,TemperatureF,DewpointF,PressureIn,WindDirection,WindDirectionDegrees,WindSpeedMPH,WindSpeedGustMPH,Humidity,HourlyPrecipIn,Conditions,Clouds,dailyrainin,SolarRadiationWatts/m^2,SoftwareType,DateUTC
2013-04-14 00:12:00,74.0,66.0,29.98,ESE,120,6.0,10.0,77,0.00,,,0.00,0.000000,,2013-04-14 10:12:00,
2013-04-14 00:22:00,74.0,66.0,29.98,ESE,120,6.0,10.0,77,0.00,,,0.00,0.000000,,2013-04-14 10:22:00,
2013-04-14 00:32:00,74.0,66.0,29.98,ESE,120,6.0,10.0,77,0.00,,,0.00,0.000000,,2013-04-14 10:32:00,
2013-04-14 00:42:00,74.0,66.0,29.98,ESE,120,6.0,10.0,77,0.00,,,0.00,0.000000,,2013-04-14 10:42:00,
2013-04-14 00:52:00,74.0,66.0,29.98,ESE,120,6.0,10.0,77,0.00,,,0.00,0.000000,,2013-04-14 10:52:00,
2013-04-14 01:12:00,76.0,69.0,29.96,SE,142,6.0,9.0,78,0.00,,,0.00,0.000000,,2013-04-14 11:12:00,
2013-04-14 01:22:00,76.0,69.0,29.96,SE,142,6.0,9.0,78,0.00,,,0.00,0.000000,,2013-04-14 11:22:00,
2013-04-14 01:32:00,76.0,69.0,29.96,SE,142,6.0,9.0,78,0.00,,,0.00,0.000000,,2013-04-14 11:32:00,
2013-04-14 01:42:00,76.0,69.0,29.96,SE,142,6.0,9.0,78,0.00,,,0.00,0.000000,,2013-04-14 11:42:00,
2013-04-14 01:52:00,76.0,69.0,29.96,SE,142,6.0,9.0,78,0.00,,,0.00,0.000000,,2013-04-14 11:52:00,
2013-04-14 02:21:00,75.0,68.0,29.93,SE,138,6.0,11.0,80,0.00,,,0.00,0.000000,,2013-04-14 12:21:00,
2013-04-14 02:32:00,75.0,68.0,29.93,SE,138,6.0,11.0,80,0.00,,,0.00,0.000000,,2013-04-14 12:32:00,
2013-04-14 02:42:00,75.0,68.0,29.93,SE,138,6.0,11.0,80,0.00,,,0.00,0.000000,,2013-04-14 12:42:00,
2013-04-14 02:51:00,75.0,68.0,29.93,SE,138,6.0,11.0,80,0.00,,,0.00,0.000000,,2013-04-14 12:51:00,
2013-04-14 03:22:00,76.0,69.0,29.92,South,174,5.0,9.0,80,0.00,,,-99.99,0.000000,,2013-04-14 13:22:00,
2013-04-14 03:32:00,76.0,69.0,29.92,South,174,5.0,9.0,80,0.00,,,-99.99,0.000000,,2013-04-14 13:32:00,
2013-04-14 03:42:00,76.0,69.0,29.92,South,174,5.0,9.0,80,0.00,,,-99.99,0.000000,,2013-04-14 13:42:00,
2013-04-14 03:52:00,76.0,69.0,29.92,South,174,5.0,9.0,80,0.00,,,-99.99,0.000000,,2013-04-14 13:52:00,
2013-04-14 04:12:00,76.0,69.0,29.92,South,182,9.0,14.0,79,0.00,,,0.00,0.000000,,2013-04-14 14:12:00,
2013-04-14 04:22:00,76.0,69.0,29.92,South,182,9.0,14.0,79,0.00,,,0.00,0.000000,,2013-04-14 14:22:00,
2013-04-14 04:32:00,76.0,69.0,29.92,South,182,9.0,14.0,79,0.00,,,0.00,0.000000,,2013-04-14 14:32:00,
2013-04-14 04:42:00,76.0,69.0,29.92,South,182,9.0,14.0,79,0.00,,,0.00,0.000000,,2013-04-14 14:42:00,
2013-04-14 04:52:00,76.0,69.0,29.92,South,182,9.0,14.0,79,0.00,,,0.00,0.000000,,2013-04-14 14:52:00,
2013-04-14 05:12:00,76.0,69.0,29.93,South,174,10.0,18.0,79,0.00,,,0.00,0.000000,,2013-04-14 15:12:00,
2013-04-14 05:22:00,76.0,69.0,29.93,South,174,10.0,18.0,79,0.00,,,0.00,0.000000,,2013-04-14 15:22:00,
2013-04-14 05:33:00,76.0,69.0,29.93,South,174,10.0,18.0,79,0.00,,,0.00,0.000000,,2013-04-14 15:33:00,
2013-04-14 05:43:00,76.0,69.0,29.93,South,174,10.0,18.0,79,0.00,,,0.00,0.000000,,2013-04-14 15:43:00,
2013-04-14 05:52:00,76.0,69.0,29.93,South,174,10.0,18.0,79,0.00,,,0.00,0.000000,,2013-04-14 15:52:00,
2013-04-14 06:13:00,76.0,69.0,29.93,SSE,168,13.0,20.0,79,0.00,,,0.00,0.000000,,2013-04-14 16:13:00,
2013-04-14 06:22:00,76.0,69.0,29.93,SSE,168,13.0,20.0,79,0.00,,,0.00,0.000000,,2013-04-14 16:22:00,
2013-04-14 06:32:00,76.0,69.0,29.93,SSE,168,13.0,20.0,79,0.00,,,0.00,0.000000,,2013-04-14 16:32:00,
2013-04-14 06:43:00,76.0,69.0,29.93,SSE,168,13.0,20.0,79,0.00,,,0.00,0.000000,,2013-04-14 16:43:00,
2013-04-14 06:52:00,76.0,69.0,29.93,SSE,168,13.0,20.0,79,0.00,,,0.00,0.000000,,2013-04-14 16:52:00,
2013-04-14 07:12:00,75.0,68.0,29.94,SSE,157,12.0,21.0,80,0.00,,,0.00,16.000000,,2013-04-14 17:12:00,
2013-04-14 07:22:00,75.0,68.0,29.94,SSE,157,12.0,21.0,80,0.00,,,0.00,16.000000,,2013-04-14 17:22:00,
2013-04-14 07:32:00,75.0,68.0,29.94,SSE,157,12.0,21.0,80,0.00,,,0.00,16.000000,,2013-04-14 17:32:00,
2013-04-14 07:42:00,75.0,68.0,29.94,SSE,157,12.0,21.0,80,0.00,,,0.00,16.000000,,2013-04-14 17:42:00,
2013-04-14 07:52:00,75.0,68.0,29.94,SSE,157,12.0,21.0,80,0.00,,,0.00,16.000000,,2013-04-14 17:52:00,
2013-04-14 08:12:00,76.0,68.0,29.95,ESE,102,11.0,17.0,77,0.00,,,0.00,152.000000,,2013-04-14 18:12:00,
2013-04-14 08:22:00,76.0,68.0,29.95,ESE,102,11.0,17.0,77,0.00,,,0.00,152.000000,,2013-04-14 18:22:00,
2013-04-14 08:32:00,76.0,68.0,29.95,ESE,102,11.0,17.0,77,0.00,,,0.00,152.000000,,2013-04-14 18:32:00,
2013-04-14 08:42:00,76.0,68.0,29.95,ESE,102,11.0,17.0,77,0.00,,,0.00,152.000000,,2013-04-14 18:42:00,
2013-04-14 08:52:00,76.0,68.0,29.95,ESE,102,11.0,17.0,77,0.00,,,0.00,152.000000,,2013-04-14 18:52:00,
2013-04-14 09:22:00,81.0,70.0,29.97,ESE,121,10.0,17.0,69,0.00,,,0.00,421.000000,,2013-04-14 19:22:00,
2013-04-14 09:32:00,81.0,70.0,29.97,ESE,121,10.0,17.0,69,0.00,,,0.00,421.000000,,2013-04-14 19:32:00,
2013-04-14 09:42:00,81.0,70.0,29.97,ESE,121,10.0,17.0,69,0.00,,,0.00,421.000000,,2013-04-14 19:42:00,
2013-04-14 09:52:00,81.0,70.0,29.97,ESE,121,10.0,17.0,69,0.00,,,0.00,421.000000,,2013-04-14 19:52:00,
2013-04-14 10:12:00,75.0,69.0,29.97,SE,142,12.0,24.0,81,0.08,,,0.08,211.000000,,2013-04-14 20:12:00,
2013-04-14 10:22:00,75.0,69.0,29.97,SE,142,12.0,24.0,81,0.08,,,0.08,211.000000,,2013-04-14 20:22:00,
2013-04-14 10:32:00,75.0,69.0,29.97,SE,142,12.0,24.0,81,0.08,,,0.08,211.000000,,2013-04-14 20:32:00,
2013-04-14 10:42:00,75.0,69.0,29.97,SE,142,12.0,24.0,81,0.08,,,0.08,211.000000,,2013-04-14 20:42:00,
2013-04-14 10:52:00,75.0,69.0,29.97,SE,142,12.0,24.0,81,0.08,,,0.08,211.000000,,2013-04-14 20:52:00,
2013-04-14 10:53:00,79.0,71.0,29.97,SSE,159,11.0,18.0,76,0.00,,,0.08,533.000000,,2013-04-14 20:53:00,
2013-04-14 11:22:00,79.0,71.0,29.97,SSE,159,11.0,18.0,76,0.00,,,0.08,533.000000,,2013-04-14 21:22:00,
2013-04-14 11:33:00,79.0,71.0,29.97,SSE,159,11.0,18.0,76,0.00,,,0.08,533.000000,,2013-04-14 21:33:00,
2013-04-14 11:43:00,79.0,71.0,29.97,SSE,159,11.0,18.0,76,0.00,,,0.08,533.000000,,2013-04-14 21:43:00,
2013-04-14 12:12:00,80.0,69.0,29.97,SSE,157,11.0,19.0,69,0.00,,,0.08,579.000000,,2013-04-14 22:12:00,
2013-04-14 12:23:00,80.0,69.0,29.97,SSE,157,11.0,19.0,69,0.00,,,0.08,579.000000,,2013-04-14 22:23:00,
2013-04-14 12:32:00,80.0,69.0,29.97,SSE,157,11.0,19.0,69,0.00,,,0.08,579.000000,,2013-04-14 22:32:00,
2013-04-14 12:43:00,80.0,69.0,29.97,SSE,157,11.0,19.0,69,0.00,,,0.08,579.000000,,2013-04-14 22:43:00,
2013-04-14 12:52:00,80.0,69.0,29.97,SSE,157,11.0,19.0,69,0.00,,,0.08,579.000000,,2013-04-14 22:52:00,
2013-04-14 13:22:00,81.0,69.0,29.96,SSE,153,12.0,21.0,67,0.00,,,0.08,639.000000,,2013-04-14 23:22:00,
2013-04-14 13:32:00,81.0,69.0,29.96,SSE,153,12.0,21.0,67,0.00,,,0.08,639.000000,,2013-04-14 23:32:00,
2013-04-14 13:42:00,81.0,69.0,29.96,SSE,153,12.0,21.0,67,0.00,,,0.08,639.000000,,2013-04-14 23:42:00,
2013-04-14 13:52:00,81.0,69.0,29.96,SSE,153,12.0,21.0,67,0.00,,,0.08,639.000000,,2013-04-14 23:52:00,
2013-04-14 14:22:00,84.0,70.0,29.94,SSE,164,11.0,19.0,62,0.00,,,0.08,853.000000,,2013-04-15 00:22:00,
2013-04-14 14:32:00,84.0,70.0,29.94,SSE,164,11.0,19.0,62,0.00,,,0.08,853.000000,,2013-04-15 00:32:00,
2013-04-14 14:42:00,84.0,70.0,29.94,SSE,164,11.0,19.0,62,0.00,,,0.08,853.000000,,2013-04-15 00:42:00,
2013-04-14 14:52:00,84.0,70.0,29.94,SSE,164,11.0,19.0,62,0.00,,,0.08,853.000000,,2013-04-15 00:52:00,
2013-04-14 15:12:00,83.0,69.0,29.93,SSE,163,8.0,15.0,63,0.00,,,0.08,783.000000,,2013-04-15 01:12:00,
2013-04-14 15:22:00,83.0,69.0,29.93,SSE,163,8.0,15.0,63,0.00,,,0.08,783.000000,,2013-04-15 01:22:00,
2013-04-14 15:32:00,83.0,69.0,29.93,SSE,163,8.0,15.0,63,0.00,,,0.08,783.000000,,2013-04-15 01:32:00,
2013-04-14 15:42:00,83.0,69.0,29.93,SSE,163,8.0,15.0,63,0.00,,,0.08,783.000000,,2013-04-15 01:42:00,
2013-04-14 15:52:00,83.0,69.0,29.93,SSE,163,8.0,15.0,63,0.00,,,0.08,783.000000,,2013-04-15 01:52:00,
2013-04-14 16:22:00,84.0,69.0,29.92,South,171,8.0,15.0,60,0.00,,,0.08,816.000000,,2013-04-15 02:22:00,
2013-04-14 16:32:00,84.0,69.0,29.92,South,171,8.0,15.0,60,0.00,,,0.08,816.000000,,2013-04-15 02:32:00,
2013-04-14 16:42:00,84.0,69.0,29.92,South,171,8.0,15.0,60,0.00,,,0.08,816.000000,,2013-04-15 02:42:00,
2013-04-14 16:52:00,84.0,69.0,29.92,South,171,8.0,15.0,60,0.00,,,0.08,816.000000,,2013-04-15 02:52:00,
2013-04-14 16:53:00,79.0,68.0,29.92,SSE,160,8.0,13.0,68,0.00,,,0.08,254.000000,,2013-04-15 02:53:00,
2013-04-14 17:12:00,79.0,68.0,29.92,SSE,160,8.0,13.0,68,0.00,,,0.08,254.000000,,2013-04-15 03:12:00,
2013-04-14 17:22:00,79.0,68.0,29.92,SSE,160,8.0,13.0,68,0.00,,,0.08,254.000000,,2013-04-15 03:22:00,
2013-04-14 17:32:00,79.0,68.0,29.92,SSE,160,8.0,13.0,68,0.00,,,0.08,254.000000,,2013-04-15 03:32:00,
2013-04-14 17:43:00,79.0,68.0,29.92,SSE,160,8.0,13.0,68,0.00,,,0.08,254.000000,,2013-04-15 03:43:00,
2013-04-14 18:13:00,79.0,68.0,29.93,South,180,6.0,12.0,69,0.00,,,0.08,177.000000,,2013-04-15 04:13:00,
2013-04-14 18:22:00,79.0,68.0,29.93,South,180,6.0,12.0,69,0.00,,,0.08,177.000000,,2013-04-15 04:22:00,
2013-04-14 18:33:00,79.0,68.0,29.93,South,180,6.0,12.0,69,0.00,,,0.08,177.000000,,2013-04-15 04:33:00,
2013-04-14 18:42:00,79.0,68.0,29.93,South,180,6.0,12.0,69,0.00,,,0.08,177.000000,,2013-04-15 04:42:00,
2013-04-14 18:52:00,79.0,68.0,29.93,South,180,6.0,12.0,69,0.00,,,0.08,177.000000,,2013-04-15 04:52:00,
2013-04-14 19:12:00,77.0,67.0,29.95,South,181,5.0,9.0,71,0.00,,,0.08,60.000000,,2013-04-15 05:12:00,
2013-04-14 19:23:00,77.0,67.0,29.95,South,181,5.0,9.0,71,0.00,,,0.08,60.000000,,2013-04-15 05:23:00,
2013-04-14 19:32:00,77.0,67.0,29.95,South,181,5.0,9.0,71,0.00,,,0.08,60.000000,,2013-04-15 05:32:00,
2013-04-14 19:42:00,77.0,67.0,29.95,South,181,5.0,9.0,71,0.00,,,0.08,60.000000,,2013-04-15 05:42:00,
2013-04-14 19:52:00,77.0,67.0,29.95,South,181,5.0,9.0,71,0.00,,,0.08,60.000000,,2013-04-15 05:52:00,
2013-04-14 20:12:00,76.0,67.0,29.97,SSE,155,3.0,6.0,75,0.00,,,0.08,0.000000,,2013-04-15 06:12:00,
2013-04-14 20:22:00,76.0,67.0,29.97,SSE,155,3.0,6.0,75,0.00,,,0.08,0.000000,,2013-04-15 06:22:00,
2013-04-14 20:33:00,76.0,67.0,29.97,SSE,155,3.0,6.0,75,0.00,,,0.08,0.000000,,2013-04-15 06:33:00,
2013-04-14 20:42:00,76.0,67.0,29.97,SSE,155,3.0,6.0,75,0.00,,,0.08,0.000000,,2013-04-15 06:42:00,
2013-04-14 20:52:00,76.0,67.0,29.97,SSE,155,3.0,6.0,75,0.00,,,0.08,0.000000,,2013-04-15 06:52:00,
2013-04-14 21:41:00,76.0,68.0,29.99,SSW,199,3.0,5.0,76,0.00,,,0.08,0.000000,,2013-04-15 07:41:00,
2013-04-14 21:42:00,76.0,68.0,29.99,SSW,199,3.0,5.0,76,0.00,,,0.08,0.000000,,2013-04-15 07:42:00,
2013-04-14 21:52:00,76.0,68.0,29.99,SSW,199,3.0,5.0,76,0.00,,,0.08,0.000000,,2013-04-15 07:52:00,
2013-04-14 22:13:00,75.0,67.0,30.00,ESE,120,1.0,5.0,77,0.00,,,0.08,0.000000,,2013-04-15 08:13:00,
2013-04-14 22:22:00,75.0,67.0,30.00,ESE,120,1.0,5.0,77,0.00,,,0.08,0.000000,,2013-04-15 08:22:00,
2013-04-14 22:33:00,75.0,67.0,30.00,ESE,120,1.0,5.0,77,0.00,,,0.08,0.000000,,2013-04-15 08:33:00,
2013-04-14 22:42:00,75.0,67.0,30.00,ESE,120,1.0,5.0,77,0.00,,,0.08,0.000000,,2013-04-15 08:42:00,
2013-04-14 22:51:00,75.0,67.0,30.00,ESE,120,1.0,5.0,77,0.00,,,0.08,0.000000,,2013-04-15 08:51:00,
2013-04-14 23:12:00,73.0,66.0,30.01,South,173,2.0,4.0,80,0.00,,,0.08,0.000000,,2013-04-15 09:12:00,
2013-04-14 23:22:00,73.0,66.0,30.01,South,173,2.0,4.0,80,0.00,,,0.08,0.000000,,2013-04-15 09:22:00,
2013-04-14 23:32:00,73.0,66.0,30.01,South,173,2.0,4.0,80,0.00,,,0.08,0.000000,,2013-04-15 09:32:00,
2013-04-14 23:42:00,73.0,66.0,30.01,South,173,2.0,4.0,80,0.00,,,0.08,0.000000,,2013-04-15 09:42:00,
2013-04-14 23:52:00,73.0,66.0,30.01,South,173,2.0,4.0,80,0.00,,,0.08,0.000000,,2013-04-15 09:52:00,